IW9CTJ-13 Weather Reports


Display with metric or nautical units.
time (UTC)temp
F
wind
direction
speed
MPH
gust
MPH
rain 1hr
in
rain 24hr
in
rain mn
in
humidity
%
barometer
mb
20260507093028 68 28 15.0 31.0 0.00 0.00 0.00 62 1012.7
20260507091532 68 65 14.0 27.0 0.00 0.00 0.00 65 1012.8
20260507090025 67 66 15.0 24.0 0.00 0.00 0.00 67 1012.9
20260507084522 67 52 10.0 29.0 0.00 0.00 0.00 69 1012.7
20260507083022 66 64 16.0 29.0 0.00 0.00 0.00 71 1012.7
20260507081523 67 63 13.0 27.0 0.00 0.00 0.00 70 1012.3
20260507080020 66 57 16.0 27.0 0.00 0.00 0.00 70 1012.3
20260507074518 66 42 13.0 27.0 0.00 0.00 0.00 73 1012.6
20260507073017 66 46 13.0 26.0 0.00 0.00 0.00 73 1012.6
20260507071519 66 21 12.0 25.0 0.00 0.00 0.00 74 1012.8
20260507070026 66 74 10.0 21.0 0.00 0.00 0.00 74 1012.8
20260507064515 65 76 10.0 20.0 0.00 0.00 0.00 76 1013.0
20260507063011 64 60 13.0 21.0 0.00 0.00 0.00 81 1013.0
20260507061509 64 30 11.0 20.0 0.00 0.00 0.00 84 1012.9
20260507060012 63 28 10.0 23.0 0.00 0.00 0.00 85 1013.1
20260507054505 63 66 12.0 20.0 0.00 0.00 0.00 85 1013.2
20260507053005 63 66 8.0 19.0 0.00 0.00 0.00 85 1013.1
20260507051503 63 68 8.0 14.0 0.00 0.00 0.00 85 1013.1
20260507050006 63 32 8.0 16.0 0.00 0.00 0.00 85 1013.0
20260507044628 62 41 12.0 18.0 0.00 0.00 0.00 84 1012.8
20260507043059 62 53 9.0 20.0 0.00 0.00 0.00 85 1012.6
20260507041557 62 44 10.0 17.0 0.00 0.00 0.00 84 1012.8
20260507040058 63 59 7.0 15.0 0.00 0.00 0.00 81 1012.7
20260507034554 63 58 4.0 11.0 0.00 0.00 0.00 80 1013.0
20260507033102 63 40 4.0 9.0 0.00 0.00 0.00 80 1013.2
20260507031558 63 75 0.0 1.0 0.00 0.00 0.00 79 1013.2
20260507030106 64 49 0.0 1.0 0.00 0.00 0.00 74 1013.3
20260507024606 64 82 0.0 13.0 0.00 0.00 0.00 74 1013.1
20260507023048 63 40 0.0 1.0 0.00 0.00 0.00 74 1012.7
20260507021554 64 75 2.0 9.0 0.00 0.00 0.00 70 1012.6
20260507020055 64 80 0.0 0.0 0.00 0.00 0.00 66 1012.6
20260507014553 64 96 0.0 1.0 0.00 0.00 0.00 69 1012.7
20260507013043 64 71 0.0 0.0 0.00 0.00 0.00 73 1012.8
20260507011546 64 61 0.0 1.0 0.00 0.00 0.00 73 1013.0
20260507010044 63 76 0.0 4.0 0.00 0.00 0.00 75 1013.3
20260507004537 63 72 0.0 8.0 0.00 0.00 0.00 77 1013.1
20260507003036 63 66 0.0 2.0 0.00 0.00 0.00 77 1013.3
20260507001536 63 51 0.0 8.0 0.00 0.00 0.00 76 1013.6
20260507000034 63 78 0.0 1.0 0.00 0.00 0.00 77 1013.9
20260506234531 63 68 0.0 1.0 0.00 0.00 0.00 78 1014.0
20260506233031 63 61 0.0 1.0 0.00 0.00 0.00 79 1013.9
20260506231528 63 74 0.0 0.0 0.00 0.00 0.00 80 1014.0
20260506230027 63 83 0.0 6.0 0.00 0.00 0.00 80 1014.1
20260506224526 63 71 1.0 9.0 0.00 0.00 0.00 80 1014.0
20260506223023 63 53 0.0 1.0 0.00 0.00 0.00 81 1014.2
20260506221521 63 49 1.0 7.0 0.00 0.00 0.00 81 1014.5
20260506220020 63 54 1.0 10.0 0.00 0.00 0.00 82 1014.3
20260506214519 63 70 0.0 10.0 0.00 0.00 0.00 82 1014.4
20260506213018 63 44 2.0 10.0 0.00 0.00 0.00 83 1014.6
20260506211522 63 53 5.0 10.0 0.00 0.00 0.00 83 1014.7
20260506210019 63 91 0.0 1.0 0.00 0.00 0.00 84 1014.6
20260506204517 63 34 5.0 10.0 0.00 0.00 0.00 84 1014.2
20260506203017 63 65 5.0 12.0 0.00 0.00 0.00 84 1013.8
20260506201519 63 105 2.0 13.0 0.00 0.00 0.00 83 1013.8
20260506200015 63 51 4.0 17.0 0.00 0.00 0.00 83 1013.5
20260506194511 64 45 6.0 12.0 0.00 0.00 0.00 82 1013.2
20260506193009 64 71 5.0 11.0 0.00 0.00 0.00 82 1014.4
20260506191509 64 55 0.0 9.0 0.00 0.00 0.00 82 1014.6
20260506190007 64 65 0.0 5.0 0.00 0.00 0.00 83 1014.6
20260506184506 64 74 0.0 5.0 0.00 0.00 0.00 83 1014.5
20260506183006 64 36 0.0 5.0 0.00 0.00 0.00 83 1014.7
20260506181505 64 82 0.0 5.0 0.00 0.00 0.00 83 1014.7
20260506180005 64 78 0.0 3.0 0.00 0.00 0.00 82 1014.6
20260506174504 64 72 1.0 5.0 0.00 0.00 0.00 82 1014.6
20260506173004 65 135 0.0 4.0 0.00 0.00 0.00 82 1014.4
20260506171503 65 67 1.0 6.0 0.00 0.00 0.00 82 1014.3
20260506170003 65 84 2.0 5.0 0.00 0.00 0.00 81 1014.2
20260506164607 65 84 0.0 6.0 0.00 0.00 0.00 80 1014.3
20260506164501 65 49 0.0 6.0 0.00 0.00 0.00 80 1014.3
20260506163107 65 59 1.0 4.0 0.00 0.00 0.00 79 1014.4
20260506161641 66 84 0.0 5.0 0.00 0.00 0.00 79 1014.4
20260506160111 65 52 2.0 6.0 0.00 0.00 0.00 79 1014.4
20260506154600 66 59 0.0 5.0 0.00 0.00 0.00 78 1014.6
20260506153059 66 61 2.0 6.0 0.00 0.00 0.00 76 1014.6
20260506151557 67 44 0.0 3.0 0.00 0.00 0.00 75 1014.5
20260506150057 67 59 1.0 4.0 0.00 0.00 0.00 74 1014.8
20260506144555 68 46 1.0 6.0 0.00 0.00 0.00 73 1014.6
20260506143055 70 153 0.0 4.0 0.00 0.00 0.00 70 1014.8
20260506141554 68 87 0.0 6.0 0.00 0.00 0.00 72 1014.9
20260506140054 69 114 0.0 4.0 0.00 0.00 0.00 71 1015.0
20260506134553 69 83 0.0 5.0 0.00 0.00 0.00 73 1014.9
20260506133052 69 38 0.0 5.0 0.00 0.00 0.00 72 1014.8
20260506131558 70 86 0.0 9.0 0.00 0.00 0.00 70 1015.0
20260506130112 70 64 0.0 4.0 0.00 0.00 0.00 70 1015.0
20260506124557 69 130 1.0 6.0 0.00 0.00 0.00 71 1015.0
20260506123050 69 99 0.0 5.0 0.00 0.00 0.00 72 1015.3
20260506121549 69 67 0.0 6.0 0.00 0.00 0.00 72 1015.5
20260506120048 69 86 0.0 6.0 0.00 0.00 0.00 72 1015.5
20260506114550 71 79 0.0 5.0 0.00 0.00 0.00 69 1015.6
20260506113053 69 133 0.0 4.0 0.00 0.00 0.00 71 1015.6
20260506111546 69 46 0.0 5.0 0.00 0.00 0.00 72 1015.6
20260506110054 70 136 0.0 3.0 0.00 0.00 0.00 71 1015.5
20260506104551 70 107 0.0 5.0 0.00 0.00 0.00 71 1015.5
20260506103049 69 86 0.0 3.0 0.00 0.00 0.00 71 1015.7
20260506101552 70 129 0.0 3.0 0.00 0.00 0.00 70 1016.0
20260506100101 69 103 0.0 2.0 0.00 0.00 0.00 67 1015.9
20260506094541 69 141 0.0 4.0 0.00 0.00 0.00 70 1015.9